Temp
24 25 26 29 27 26 30 29 28 27 26 25 25 25 25 25 25 25 25 25 25 24 23 23 24 24 25 25 25 25 25 25 26
24 24 24 25 25 27 26 25 25 27 26 25 25 26 25 25 25 25 25 25 25 25 23 23 24 24 24 25 25 26 25 26 26
26 25 24 27 24 23 26 25 23 25 26 25 25 26 25 24 24 24 25 25 25 24 23 24 23 24 24 25 25 25 25 25 25
30 30 27 22 24 24 25 24 24 25 25 25 25 26 25 25 24 25 25 25 25 25 24 24 23 24 25 25 25 25 25 25 24
30 32 27 23 23 22 25 25 25 24 24 25 25 25 24 24 24 23 25 25 24 25 25 24 24 24 24 24 24 25 25 24 25
26 29 28 26 26 26 26 25 24 23 22 23 24 24 24 23 23 23 24 23 24 22 25 25 24 24 24 24 24 24 24 24 24
25 25 25 27 26 25 23 24 23 23 23 21 21 22 22 22 22 23 23 22 22 23 24 23 24 24 24 24 24 24 24 24 24
25 24 23 24 21 21 23 24 24 24 23 22 20 21 21 21 21 21 22 22 22 22 23 23 24 24 24 23 23 23 24 25 23
24 24 23 21 21 21 19 21 23 23 23 22 21 21 21 21 21 20 21 21 21 21 22 22 23 24 23 22 21 21 22 24 24
24 23 22 21 20 18 17 16 18 19 22 22 22 21 21 21 20 21 20 20 20 20 21 22 23 22 21 21 20 20 22 23 23
25 23 21 21 18 16 14 15 16 18 19 19 19 19 19 19 20 19 19 19 19 19 20 21 21 20 19 20 20 20 21 22 23
25 23 22 20 18 15 13 14 15 16 16 16 16 16 17 17 17 18 18 18 19 19 20 20 20 19 18 18 19 20 21 21 22
25 20 19 18 15 14 13 12 13 14 13 14 14 14 15 16 17 17 17 17 18 18 19 19 19 18 18 16 17 18 19 20 21
22 21 19 17 15 14 13 13 14 13 13 13 13 14 14 14 15 15 15 15 16 16 17 19 18 17 17 16 16 16 17 18 18
21 20 19 17 15 14 13 13 13 13 12 12 13 14 14 14 14 14 15 15 15 16 17 18 18 17 17 17 16 15 15 16 16
22 22 21 20 18 16 15 15 14 13 13 13 13 13 13 14 15 15 15 15 16 16 16 17 17 18 18 18 16 15 15 14 15
22 21 21 20 18 18 17 16 16 14 13 14 14 13 13 14 14 14 15 15 15 16 17 18 18 18 19 19 18 15 15 16 15
22 21 21 20 20 19 17 16 15 15 15 15 15 15 14 14 14 14 14 15 15 15 15 15 15 15 15 16 14 14 15 15 15
21 21 21 20 20 19 18 18 16 16 15 15 15 15 15 16 16 16 16 15 13 13 14 14 14 13 13 14 14 14 14 14 14
21 21 21 20 20 20 18 18 17 16 16 15 16 17 18 18 17 18 18 17 16 13 13 13 13 13 13 12 13 13 13 13 13
Height
802 796 796 791 798 803 800 807 816 817 827 832 836 838 840 843 847 851 855 856 856 855 855 855 859 862 863 864 866 867 866 864 864
785 787 798 798 794 808 797 813 820 815 826 830 833 837 838 841 845 848 851 854 854 856 855 854 858 862 863 860 858 861 864 864 865
774 780 789 791 799 807 794 804 814 820 825 825 829 833 836 839 843 845 848 850 851 857 857 857 856 860 862 859 858 861 864 865 866
761 764 777 789 789 804 791 805 816 814 819 821 826 830 834 837 845 849 848 848 850 855 855 856 857 859 859 857 858 859 862 863 865
753 751 769 779 783 783 795 804 811 807 813 817 823 828 830 837 843 845 853 849 851 853 857 857 856 856 855 858 860 859 859 859 861
765 760 765 777 782 782 790 801 809 812 816 821 822 827 829 835 843 847 849 849 851 849 856 857 854 856 858 860 860 860 857 856 857
771 773 775 776 785 791 797 804 810 814 818 822 825 827 831 834 835 837 841 848 851 853 855 857 855 855 857 858 858 857 856 856 856
773 779 783 784 792 794 799 804 809 814 818 822 825 829 831 834 834 835 840 845 849 850 852 852 851 853 855 855 854 854 853 853 854
781 782 786 793 797 799 802 805 809 812 818 822 825 827 831 835 835 838 839 840 843 845 846 846 847 849 852 851 850 852 852 852 854
782 787 790 794 800 804 807 811 811 812 816 820 824 827 831 833 836 836 839 840 844 844 844 845 847 847 848 849 850 851 850 851 852
782 790 794 799 804 810 812 813 813 816 817 818 822 826 830 833 837 838 840 841 844 845 846 846 848 849 849 848 850 850 850 850 850
782 790 796 802 807 811 813 815 816 817 819 822 825 829 831 835 838 839 841 844 845 845 847 847 849 850 851 850 851 851 851 851 850
783 795 802 807 812 815 817 819 820 821 824 826 829 831 834 836 837 841 843 846 845 846 848 848 850 851 851 852 852 851 851 851 851
792 798 805 811 815 818 820 822 823 824 827 830 833 834 836 839 840 843 845 846 847 847 848 849 850 853 853 853 854 854 852 852 851
797 803 808 813 817 820 824 825 827 828 830 834 835 837 839 840 842 844 846 848 849 849 849 851 851 854 855 853 854 854 854 853 853
800 804 808 812 817 822 825 826 828 830 833 836 838 840 841 842 843 846 847 850 850 851 852 852 852 855 854 854 853 854 854 854 853
801 807 811 816 820 823 826 829 831 832 833 836 839 842 842 844 846 846 847 849 849 850 851 852 851 853 854 852 853 853 852 852 853
803 809 813 816 820 823 827 830 833 834 836 838 840 842 843 845 846 846 850 849 849 849 850 850 853 852 852 850 852 852 852 853 852
805 810 813 817 820 824 827 830 832 834 836 838 840 842 843 844 845 847 848 848 850 851 849 851 853 856 853 851 852 853 853 853 853
806 811 815 817 820 822 826 830 832 834 836 838 839 839 839 840 842 843 844 847 848 851 852 852 853 854 852 853 853 853 853 854 853
Wind_Speed
11 16 13 9 8 11 25 26 19 30 24 22 19 17 14 12 8 5 6 7 2 2 7 8 9 13 11 9 8 5 4 1 5
19 18 15 10 12 23 32 14 7 33 26 23 20 17 15 11 7 8 2 3 3 3 7 8 3 5 10 8 6 6 5 5 5
24 23 20 16 15 24 18 13 16 27 23 25 21 19 17 15 12 9 6 4 4 3 2 4 12 13 13 8 8 11 10 9 5
26 26 23 16 9 18 27 29 33 33 26 24 16 11 11 13 10 10 9 7 5 2 2 1 9 9 11 12 12 12 13 13 11
6 17 25 14 21 36 34 25 19 26 27 25 20 17 11 5 12 12 12 8 1 4 5 4 6 10 10 10 12 12 13 13 11
10 11 15 23 16 20 24 23 16 17 19 20 20 18 11 8 7 10 6 3 7 7 10 10 8 8 12 14 15 14 14 15 15
10 11 9 10 13 15 14 14 18 19 16 11 12 13 12 14 13 7 6 4 9 13 10 8 10 10 12 13 11 11 11 13 13
10 9 8 7 9 9 9 15 16 14 14 15 13 13 11 12 13 12 11 12 11 13 16 13 9 11 12 10 8 9 11 11 10
9 10 11 8 7 7 9 6 6 19 17 17 17 16 15 13 13 10 8 10 10 11 13 10 9 9 7 7 5 7 8 10 8
10 11 10 9 7 8 9 5 6 10 11 18 18 16 12 10 8 6 3 2 2 4 8 9 6 4 6 1 3 6 5 7 9
14 13 12 9 13 11 7 7 8 9 14 16 16 15 14 11 10 7 5 5 3 2 2 5 5 6 4 3 6 5 4 4 5
16 11 14 15 12 11 10 10 11 14 15 17 18 15 13 12 9 7 4 2 1 2 3 2 1 3 4 3 4 4 4 3 9
16 24 18 16 13 13 13 11 14 18 18 19 18 17 15 13 13 10 8 5 5 4 2 2 4 6 4 2 5 8 4 5 3
21 21 21 17 14 13 13 13 16 19 17 16 14 12 11 9 10 8 6 3 3 3 3 5 5 6 1 3 4 7 9 5 4
19 18 18 16 16 15 14 15 15 16 15 14 14 13 12 10 8 6 5 4 3 2 3 4 5 3 2 3 3 7 12 10 6
13 13 14 15 17 16 14 13 13 14 16 13 10 10 9 8 6 5 7 3 4 2 2 2 5 6 5 7 5 2 7 9 8
12 12 13 15 15 14 12 9 10 11 13 12 10 8 7 7 7 6 6 2 2 6 4 5 4 6 5 5 2 2 6 10 7
11 13 13 13 13 13 13 12 11 11 11 9 8 6 5 5 5 6 5 2 3 3 2 2 5 3 5 5 4 2 5 10 8
16 12 10 13 12 12 12 12 13 12 10 10 10 9 8 8 9 9 11 8 3 3 2 5 8 5 1 2 5 9 9 6 2
14 13 11 11 10 13 14 11 11 10 10 9 8 7 3 7 7 12 11 11 12 9 5 7 7 8 7 6 8 6 2 4 2
Wind_Direction
196 253 250 243 154 272 154 147 156 150 165 171 179 183 191 192 196 194 190 201 208 226 229 254 182 227 232 206 205 210 232 243 267
180 235 224 219 227 212 130 145 209 169 174 172 174 184 188 194 195 220 228 159 126 38 61 22 229 202 243 233 215 222 243 261 273
183 204 225 195 167 171 148 216 203 179 168 168 176 184 187 195 204 198 205 205 231 146 171 205 221 239 228 226 234 226 236 249 296
191 193 187 194 176 191 160 209 189 160 161 156 167 177 187 202 201 216 206 202 243 230 214 150 199 243 227 221 224 231 235 247 260
84 181 169 175 166 207 157 175 163 151 162 160 172 192 190 165 189 234 225 211 198 249 247 217 244 243 243 237 231 234 237 247 248
80 85 99 159 161 143 144 152 156 146 148 161 180 186 200 206 181 210 208 153 229 274 239 243 237 250 243 248 237 240 245 248 255
120 100 94 96 114 131 140 155 165 169 172 187 197 217 230 240 241 250 247 170 208 222 234 242 240 248 255 248 244 248 250 246 248
135 132 121 123 99 83 112 149 159 179 184 188 187 189 196 217 219 227 259 252 244 248 253 248 229 248 261 264 269 245 249 257 241
150 148 135 134 134 115 78 50 153 179 188 186 183 182 201 217 226 233 257 273 268 259 254 263 242 258 272 241 262 261 264 253 242
135 119 121 122 108 98 79 61 58 62 178 185 191 193 191 188 198 177 148 87 275 246 236 223 233 210 223 226 309 292 290 269 259
127 122 120 130 119 115 103 103 105 111 109 118 136 138 136 138 142 131 110 98 98 93 135 151 188 164 130 52 22 8 358 1 332
127 119 122 112 109 108 100 103 115 118 111 122 118 115 123 134 145 136 129 107 44 304 274 243 10 121 80 5 19 4 1 5 47
111 104 104 108 110 111 107 106 121 119 114 112 105 108 114 119 123 114 111 127 121 71 20 38 141 123 96 2 347 354 345 341 3
101 110 114 118 117 112 114 119 122 114 117 112 114 116 113 116 111 118 120 109 84 96 93 126 121 127 15 309 334 359 14 6 3
116 115 120 123 122 122 126 126 125 119 117 125 125 122 121 115 114 118 105 109 113 98 147 123 122 123 193 202 356 26 11 11 4
121 137 132 132 132 136 138 129 132 130 136 134 130 128 123 123 125 117 115 91 92 71 183 176 221 218 228 124 112 50 356 7 35
138 135 144 140 142 138 135 138 142 148 143 138 132 138 136 138 147 133 125 142 220 294 244 235 225 265 259 200 205 228 329 342 337
135 145 161 154 152 152 154 152 150 147 149 154 156 152 157 173 176 151 172 115 102 112 51 59 350 13 17 43 78 250 296 324 320
140 154 164 156 169 160 157 157 155 159 163 166 168 176 181 193 187 187 192 171 161 224 270 330 271 289 268 300 283 306 308 299 266
127 159 176 177 189 165 161 173 173 176 180 186 200 230 239 177 220 216 188 196 179 176 202 239 246 255 259 255 271 297 253 176 97